Gulfport, MS

5:58 AM CDT on June 24, 2017 (GMT -0500)
Gulfport-Biloxi Regional

Weather History for KGPT - April, 2014

Change the Weather History Date:

Sunday, April 13, 2014

  Actual Average Record
Temperature  
Mean Temperature 73 °F -  
Max Temperature 78 °F 76 °F 86 °F (1954)
Min Temperature 69 °F 60 °F 42 °F (2004)
Cooling Degree Days 8    
Growing Degree Days 23 (Base 50)    
Moisture  
Dew Point 66 °F    
Average Humidity 81    
Maximum Humidity 87    
Minimum Humidity 69    
Precipitation  
Precipitation 0.00 in - - ()
Sea Level Pressure  
Sea Level Pressure 30.00 in    
Wind  
Wind Speed 11 mph (SE)    
Max Wind Speed 22 mph    
Max Gust Speed 28 mph    
Visibility 9 miles    
Events      
Averages and records for this station are not official NWS values.
T = Trace of Precipitation, MM = Missing Value Source: NWS Daily Summary

Daily Weather History Graph

Daily Weather History Graph

Search for Another Location

Airport or City:

Trip Planner

Search our weather history database for the weather conditions in past years. The results will help you decide how hot, cold, wet, or windy it might be!

Date:

Astronomy

Apr. 13, 2014 Rise Set
Actual Time 6:31 AM CDT 7:22 PM CDT
Civil Twilight 6:06 AM CDT 7:47 PM CDT
Nautical Twilight 5:37 AM CDT 8:16 PM CDT
Astronomical Twilight 5:08 AM CDT 8:46 PM CDT
Moon 6:05 PM CDT (4/13) 5:22 AM CDT (4/13)
Length of Visible Light 13h 40m
Length of Day
12h 51m
Waxing Gibbous, 97% of the Moon is Illuminated
Apr 13
Waxing Gibbous
Apr 15
Full
Apr 22
Last Quarter
Apr 29
New
May 6
First Quarter

Hourly Weather History & Observations

Time (CDT) Temp. Dew Point Humidity Pressure Visibility Wind Dir Wind Speed Gust Speed Precip Events Conditions
12:53 AM 70.0 °F 64.0 °F 81% 30.05 in 10.0 mi SSE 9.2 mph - N/A   Clear
1:53 AM 70.0 °F 64.9 °F 84% 30.04 in 10.0 mi SSE 8.1 mph - N/A   Clear
2:53 AM 69.1 °F 64.9 °F 87% 30.02 in 9.0 mi SSE 6.9 mph - N/A   Clear
3:00 AM 70.0 °F 64.9 °F 84% 30.02 in 9.0 mi SSE 6.9 mph - N/A   Partly Cloudy
3:26 AM 69.1 °F 64.9 °F 87% 30.02 in 8.0 mi SSE 5.8 mph - N/A   Mostly Cloudy
3:34 AM 69.1 °F 64.9 °F 87% 30.01 in 8.0 mi SSE 8.1 mph - N/A   Scattered Clouds
3:53 AM 69.1 °F 64.9 °F 87% 30.01 in 8.0 mi SSE 5.8 mph - N/A   Scattered Clouds
4:53 AM 69.1 °F 64.9 °F 87% 30.01 in 7.0 mi SE 8.1 mph - N/A   Scattered Clouds
5:08 AM 69.1 °F 64.9 °F 87% 30.01 in 7.0 mi SE 8.1 mph - N/A   Mostly Cloudy
5:53 AM 69.1 °F 64.9 °F 87% 30.01 in 8.0 mi SE 8.1 mph - N/A   Mostly Cloudy
6:12 AM 69.1 °F 64.9 °F 87% 30.01 in 7.0 mi SE 9.2 mph - N/A   Partly Cloudy
6:53 AM 70.0 °F 64.9 °F 84% 30.02 in 7.0 mi SE 12.7 mph - N/A   Clear
7:53 AM 71.1 °F 66.0 °F 84% 30.04 in 9.0 mi SE 11.5 mph - N/A   Clear
8:53 AM 73.0 °F 66.0 °F 79% 30.05 in 10.0 mi SE 15.0 mph - N/A   Partly Cloudy
9:53 AM 75.0 °F 66.0 °F 73% 30.06 in 10.0 mi SE 16.1 mph - N/A   Partly Cloudy
10:53 AM 75.9 °F 66.0 °F 71% 30.08 in 9.0 mi SE 16.1 mph - N/A   Mostly Cloudy
11:16 AM 75.0 °F 66.0 °F 73% 30.08 in 9.0 mi SE 21.9 mph 27.6 mph N/A   Mostly Cloudy
11:53 AM 73.9 °F 66.0 °F 76% 30.08 in 9.0 mi SE 17.3 mph 25.3 mph N/A   Overcast
12:53 PM 77.0 °F 66.0 °F 69% 30.06 in 10.0 mi SE 17.3 mph - N/A   Overcast
1:53 PM 77.0 °F 66.9 °F 71% 30.03 in 10.0 mi SE 20.7 mph - N/A   Scattered Clouds
2:53 PM 77.0 °F 66.9 °F 71% 30.01 in 10.0 mi SE 18.4 mph - N/A   Scattered Clouds
3:53 PM 77.0 °F 66.9 °F 71% 29.99 in 10.0 mi SE 17.3 mph - N/A   Scattered Clouds
4:53 PM 75.9 °F 66.9 °F 74% 29.98 in 10.0 mi SE 16.1 mph - N/A   Scattered Clouds
5:53 PM 75.9 °F 66.9 °F 74% 29.96 in 10.0 mi SE 17.3 mph - N/A   Scattered Clouds
6:53 PM 73.9 °F 66.9 °F 79% 29.95 in 9.0 mi SE 15.0 mph - N/A   Scattered Clouds
7:53 PM 73.0 °F 68.0 °F 84% 29.95 in 9.0 mi SE 13.8 mph - N/A   Mostly Cloudy
8:20 PM 73.0 °F 68.0 °F 84% 29.95 in 9.0 mi SE 13.8 mph - N/A   Mostly Cloudy
8:53 PM 73.0 °F 68.0 °F 84% 29.95 in 9.0 mi SE 13.8 mph - N/A   Mostly Cloudy
9:00 PM 73.0 °F 68.0 °F 84% 29.94 in 9.0 mi SE 16.1 mph - N/A   Mostly Cloudy
9:53 PM 73.0 °F 66.9 °F 81% 29.95 in 9.0 mi SSE 15.0 mph - N/A   Mostly Cloudy
10:00 PM 73.0 °F 66.9 °F 81% 29.95 in 9.0 mi SE 13.8 mph - N/A   Scattered Clouds
10:38 PM 72.0 °F 66.9 °F 84% 29.95 in 9.0 mi SSE 12.7 mph - N/A   Mostly Cloudy
10:53 PM 72.0 °F 68.0 °F 87% 29.95 in 9.0 mi SE 16.1 mph - N/A   Mostly Cloudy
11:00 PM 72.0 °F 68.0 °F 87% 29.95 in 9.0 mi SE 15.0 mph - N/A   Overcast
11:53 PM 72.0 °F 68.0 °F 87% 29.94 in 9.0 mi SSE 15.0 mph - N/A   Overcast